Location: Newark
(7.0858°N, 171.3717°E)
Time: 06:06:01
(UTC+00:00)

Courier 1B Rocket - Pass Details

Date: 28 November 2020
Orbit: 920 x 1202 km, 28.2° (Epoch: 20 January)

Event Time Altitude Azimuth Distance (km) Brightness Sun altitude
Rises 17:09:05 0° 269° (W) 4,047 - -19.7°
Reaches altitude 10° 17:12:17 10° 279° (W) 3,106 - -18.9°
Exits shadow 17:16:17 25° 305° (NW) 2,196 6.3 -18.0°
Maximum altitude 17:18:58 31° 338° (NNW) 1,969 6.2 -17.4°
Drops below altitude 10° 17:25:40 10° 38° (NE) 3,109 7.8 -15.8°
Sets 17:28:54 0° 48° (NE) 4,051 8.6 -15.1°
